[[{"header":{"parameterUnit":"m.s-1","parameterCategory":2,"la1":30.2991,"la2":30.254,"lo1":-89.0895,"lo2":-89.0444,"dy":0.0017,"dx":0.0017,"nx":28,"ny":28,"refTime":"2024-02-05T03:00:00:Z","depth":"0","parameterNumber":2,"parameterNumberName":"U-component_of_CURRENTS"},"data":[0,0,0,0,0,0,0,0,0,0,0,0,0,0,0,0,0,0,0,0,0,0,0,0,0,0,0,0,0,0,0,0,0,0,0,0,0,0,0,0,0,0,0,0,0,0,0,0,0,0,0,0,0,0,0,0,0,0,0.1979,0.1979,0,0.1972,0.1972,0.1971,0.1931,0.193,0.193,0.1929,0.1891,0.1891,0.189,0,0,0,0,0,0,0,0,0,0,0,0,0,0.1984,0.1984,0.1979,0.1979,0.1979,0.1972,0.1972,0.1971,0.1931,0.193,0.1929,0.1929,0.1891,0.1891,0.189,0,0,0,0,0,0,0,0,0,0,0,0,0,0.1977,0.1983,0.1979,0.1961,0.1959,0.1972,0.1972,0.1971,0.1931,0.193,0.1929,0.1928,0.1891,0.1891,0.189,0.1908,0,0,0.1889,0.1888,0,0,0,0,0,0,0,0,0.1977,0.1976,0.1963,0.1962,0.196,0.1954,0.196,0.1949,0.1932,0.1939,0.1929,0.1928,0.1912,0.191,0.1907,0.1906,0.1904,0.1889,0.1888,0.1888,0.1888,0,0,0,0,0,0,0,0.1978,0.1977,0.1973,0.1964,0.1962,0.1962,0.1959,0.1958,0.1928,0.1938,0.1936,0.194,0.191,0.1907,0.1906,0.1904,0.1889,0.1888,0.1888,0.1888,0.1914,0.1915,0,0,0,0,0,0,0.1985,0.1977,0.1973,0.1973,0.197,0.1963,0.196,0.1955,0.1929,0.1925,0.1941,0.1938,0.1909,0.1906,0.1904,0.1922,0.1888,0.1888,0.1887,0.1913,0.1914,0.1916,0,0,0,0,0,0,0.1985,0.1984,0.1974,0.1978,0.1977,0.1964,0.1959,0.1955,0.1949,0.1932,0.1927,0.1939,0.1908,0.1905,0.1905,0.192,0.1887,0.1887,0.1912,0.1914,0.1915,0.1958,0,0,0,0,0,0,0.1985,0.1984,0.1984,0.1978,0.1977,0.1975,0.196,0.1956,0.1955,0.1951,0.1929,0.1924,0.1907,0.1906,0.1905,0.1919,0.1886,0.1911,0.1913,0.1915,0.1955,0.1961,0.1965,0,0,0,0,0,0.1985,0.1986,0.1984,0.1984,0.1977,0.1975,0.1974,0.196,0.1956,0.1951,0.1945,0.1925,0.1917,0.1907,0.1905,0.1919,0.191,0.1912,0.1914,0.1953,0.196,0.1965,0,0,0,0,0,0,0.1987,0.1982,0.198,0.1979,0.1977,0.1969,0.197,0.1966,0.1957,0.1957,0.1937,0.1933,0.1938,0.1927,0.1916,0.1933,0.1911,0.1913,0.1941,0.1947,0.1952,0.1961,0.1886,0,0,0,0,0,0.1991,0.1989,0.1986,0.1987,0.1987,0.1982,0.1982,0.1975,0.1969,0.1964,0.1953,0.1947,0.1949,0.1946,0.194,0.1952,0.1953,0.1961,0.1966,0.197,0.1977,0.2005,0.2013,0.1923,0.1923,0.1923,0,0,0.1994,0.1992,0.1991,0.1988,0.1986,0.1993,0.1978,0.1979,0.1986,0.1963,0.1968,0.1963,0.1956,0.1965,0.1967,0.1956,0.1995,0.1973,0.1977,0.1982,0.2008,0.2017,0.2025,0.1925,0.1924,0.1924,0,0,0.2001,0.1996,0.1999,0.2001,0.2004,0.2002,0.2005,0.2002,0.1997,0.2009,0.1997,0.2005,0.2001,0.2001,0.2002,0.2036,0.2021,0.2032,0.2065,0.2092,0.2099,0.2106,0.2113,0.212,0.2035,0.2035,0.2035,0,0.2008,0.2007,0.2,0.2009,0.2015,0.201,0.202,0.2021,0.2019,0.203,0.2014,0.2036,0.2022,0.2049,0.2055,0.2047,0.2054,0.204,0.2099,0.2106,0.2112,0.2117,0.2125,0.2037,0.2037,0.2037,0.2037,0,0.2018,0.2022,0.2026,0.2034,0.204,0.2046,0.2052,0.206,0.2063,0.2071,0.2096,0.2086,0.2101,0.2098,0.2084,0.2123,0.211,0.2101,0.2083,0.2124,0.2127,0.2133,0.2041,0.204,0.2039,0.2039,0,0,0.2021,0.203,0.2032,0.2039,0.2053,0.2057,0.2082,0.2102,0.2126,0.2132,0.2164,0.217,0.2172,0.2174,0.2161,0.2179,0.2218,0.2159,0.216,0.2165,0.2268,0.2253,0.2259,0.2222,0.2224,0.2225,0.2251,0,0.2031,0.2046,0.2051,0.2072,0.2079,0.2092,0.2114,0.2137,0.2157,0.2186,0.2199,0.2219,0.2199,0.2206,0.2226,0.222,0.224,0.2211,0.2229,0.2229,0.2211,0.2268,0.2226,0.2245,0.2257,0.2258,0.2259,0,0.2038,0.2047,0.2063,0.2086,0.2092,0.2107,0.2148,0.2169,0.2217,0.2237,0.2277,0.228,0.2311,0.2283,0.2316,0.23,0.2291,0.2284,0.2285,0.2262,0.2228,0.2208,0.2257,0.2265,0.2269,0.2268,0.2268,0,0.2032,0.2055,0.2066,0.2073,0.2101,0.2118,0.2138,0.2186,0.2216,0.2273,0.2303,0.2343,0.2363,0.2372,0.2362,0.2343,0.2393,0.2364,0.2343,0.2341,0.2305,0.2297,0.2363,0.2393,0.2393,0.2393,0.2393,0,0.2033,0.2043,0.2063,0.2068,0.2092,0.2116,0.2155,0.2189,0.2247,0.229,0.2325,0.237,0.2388,0.2414,0.2394,0.24,0.2425,0.2365,0.2358,0.2317,0.2311,0.2313,0.2302,0.2394,0.2394,0.2394,0.2394,0,0.2022,0.2033,0.2048,0.2076,0.2086,0.2105,0.2159,0.2186,0.2249,0.2308,0.2327,0.2403,0.2444,0.245,0.247,0.2443,0.2391,0.2433,0.2375,0.2362,0.2336,0.2327,0.222,0.2148,0.2414,0.2414,0.2414,0,0.2015,0.202,0.2048,0.2054,0.2063,0.2096,0.2114,0.218,0.2215,0.2327,0.2348,0.2422,0.2471,0.2506,0.2481,0.2463,0.2392,0.24,0.2356,0.235,0.2336,0.2196,0.2133,0.2319,0.2318,0.2317,0.2317,0,0.2002,0.2012,0.2022,0.2033,0.2046,0.207,0.2103,0.2137,0.2217,0.2271,0.2354,0.2411,0.2475,0.2468,0.2461,0.2436,0.2317,0.2385,0.2403,0.2297,0.2124,0.2047,0.2274,0.2311,0.2311,0.2312,0.2312,0.2312,0.199,0.1991,0.1998,0.2005,0.2016,0.2025,0.2028,0.2077,0.213,0.22,0.2302,0.2374,0.2444,0.2443,0.2398,0.235,0.2273,0.2306,0.2304,0.2167,0.2078,0.2288,0.2303,0.2303,0.2304,0.2304,0.2305,0,0.196,0.1959,0.1965,0.1959,0.1942,0.197,0.1997,0.1993,0.202,0.2136,0.2199,0.2313,0.2336,0.2364,0.2361,0.2306,0.2141,0.2261,0.2087,0.2032,0.2268,0.2251,0.2227,0.2227,0.2227,0.2227,0.2227,0.2227,0.1943,0.1924,0.1921,0.1877,0.1871,0.1833,0.1834,0.1849,0.1913,0.1996,0.2076,0.2164,0.2332,0.2405,0.2389,0.2316,0.2152,0.2049,0.2014,0.2259,0.2263,0.2267,0.2252,0.2228,0.2228,0.1686,0.1683,0.1681]},{"header":{"parameterUnit":"m.s-1","parameterCategory":2,"la1":30.2991,"la2":30.254,"lo1":-89.0895,"lo2":-89.0444,"dy":0.0017,"dx":0.0017,"nx":28,"ny":28,"refTime":"2024-02-05T03:00:00:Z","depth":"0","parameterNumber":3,"parameterNumberName":"V-component_of_CURRENTS"},"data":[0,0,0,0,0,0,0,0,0,0,0,0,0,0,0,0,0,0,0,0,0,0,0,0,0,0,0,0,0,0,0,0,0,0,0,0,0,0,0,0,0,0,0,0,0,0,0,0,0,0,0,0,0,0,0,0,0,0,0.0048,0.0047,0,0.0031,0.0031,0.0031,0.0016,0.0016,0.0016,0.0016,-0.0001,-0.0002,-0.0002,0,0,0,0,0,0,0,0,0,0,0,0,0,0.0031,0.0032,0.0048,0.0047,0.0047,0.0031,0.0031,0.0031,0.0016,0.0016,0.0016,0.0016,-0.0001,-0.0002,-0.0002,0,0,0,0,0,0,0,0,0,0,0,0,0,0.0029,0.0032,0.0048,0.0039,0.0038,0.0031,0.0031,0.0031,0.0016,0.0016,0.0016,0.0016,-0.0001,-0.0002,-0.0002,-0.0002,0,0,-0.0004,-0.0004,0,0,0,0,0,0,0,0,0.0029,0.0029,0.004,0.0039,0.0038,0.0026,0.0019,0.002,0.0016,0.0024,0.0016,0.0016,0.0008,0.0007,0.0003,-0.0003,-0.0004,-0.0004,-0.0004,-0.0004,-0.0004,0,0,0,0,0,0,0,0.0029,0.0029,0.004,0.004,0.0039,0.0024,0.0023,0.0019,0.0017,0.0023,0.0022,0.0022,0.0008,0.0004,0.0003,-0.0004,-0.0004,-0.0004,-0.0005,-0.0005,-0.0014,-0.0014,0,0,0,0,0,0,0.0035,0.003,0.0041,0.004,0.0034,0.0024,0.0024,0.003,0.0017,0.0015,0.0022,0.0021,0.0005,0.0004,0.0002,0.0011,-0.0004,-0.0005,-0.0005,-0.0014,-0.0014,-0.0014,0,0,0,0,0,0,0.0034,0.0036,0.0042,0.0035,0.0034,0.0025,0.0031,0.0029,0.0028,0.0016,0.0014,0.0022,0.0005,0.0003,0.0004,0.001,-0.0005,-0.0006,-0.0014,-0.0014,-0.0014,0.0022,0,0,0,0,0,0,0.0034,0.0036,0.0042,0.0035,0.0035,0.0043,0.0032,0.0029,0.0028,0.0026,0.0015,0.0014,0.0005,0.0005,0.0003,0.0009,-0.0006,-0.0014,-0.0014,-0.0014,0.002,0.0023,0.0025,0,0,0,0,0,0.0034,0.0046,0.0042,0.0043,0.0043,0.0044,0.0042,0.0034,0.0028,0.0031,0.0024,0.0014,0.0004,0.0005,0.0003,0.0008,-0.0015,-0.0014,-0.0014,0.0019,0.0022,0.0025,0,0,0,0,0,0,0.004,0.0045,0.0041,0.0053,0.005,0.0042,0.0044,0.0037,0.0033,0.0032,0.0019,0.0017,0.0018,0.0008,0.0008,0.0004,-0.0009,-0.0009,0.0017,0.002,0.0023,0.0035,-0.0006,0,0,0,0,0,0.0045,0.0055,0.0053,0.0062,0.0062,0.0053,0.0051,0.0046,0.0041,0.0039,0.0032,0.0023,0.0017,0.0015,0.0007,0.0009,-0.0007,0.0009,0.0011,0.0014,0.0021,0.0001,0.0002,-0.0014,-0.0014,-0.0014,0,0,0.0048,0.0053,0.0058,0.0064,0.006,0.007,0.0051,0.0053,0.006,0.0038,0.0046,0.0033,0.0019,0.002,0.0019,0.0013,0.0008,0.0014,0.0016,0.0023,0.0001,0.0003,0.0004,-0.0013,-0.0013,-0.0014,0,0,0.0065,0.0066,0.0081,0.0083,0.0083,0.0081,0.0083,0.0078,0.0074,0.0077,0.0062,0.0055,0.0047,0.0039,0.0033,0.0044,0.0021,0.0038,0.0062,0.0042,0.0044,0.0045,0.0022,0.0021,0.004,0.004,0.004,0,0.0068,0.009,0.0084,0.0099,0.0106,0.009,0.0107,0.0102,0.0097,0.0099,0.0085,0.0072,0.0057,0.006,0.0061,0.0051,0.0034,0.0054,0.0046,0.0047,0.0047,0.0024,0.0022,0.0042,0.0041,0.0041,0.0041,0,0.0097,0.0113,0.0122,0.014,0.0145,0.0156,0.0152,0.0153,0.0144,0.014,0.0136,0.0111,0.0106,0.0094,0.0082,0.0079,0.0064,0.0052,0.0041,0.0051,0.0026,0.0023,0.0044,0.0043,0.0043,0.0043,0,0,0.0113,0.0139,0.0143,0.0161,0.0169,0.018,0.0189,0.0199,0.0215,0.0191,0.0204,0.0178,0.0162,0.0154,0.013,0.0109,0.0092,0.0085,0.0083,0.0068,0.0046,0.003,0.0025,0.0077,0.0077,0.0077,0.0025,0,0.0139,0.0182,0.0185,0.0224,0.0247,0.0238,0.0254,0.0257,0.0254,0.026,0.0222,0.0224,0.0185,0.0182,0.0155,0.0113,0.0087,0.0107,0.0035,0.0032,0.0021,0.0023,0.004,-0.0004,0.0023,0.0022,0.0022,0,0.0173,0.0199,0.0244,0.0278,0.0286,0.0307,0.0335,0.0347,0.0345,0.0339,0.0324,0.0295,0.0265,0.0226,0.0153,0.0167,0.0112,0.0069,0.0066,0.004,0.0012,-0.001,-0.001,-0.0129,0.0018,0.0018,0.0018,0,0.0201,0.0242,0.0283,0.0295,0.0328,0.0346,0.0363,0.0375,0.0399,0.0393,0.0402,0.0356,0.0339,0.0261,0.0169,0.0162,0.0083,0.0062,-0.0008,-0.001,-0.0014,-0.0016,-0.0132,0.0007,0.0007,0.0007,0.0007,0,0.0237,0.0269,0.0304,0.0328,0.0383,0.0387,0.0443,0.0449,0.0468,0.0511,0.045,0.0463,0.0347,0.0285,0.019,0.0086,0.0097,-0.0001,-0.0022,-0.0002,-0.0003,-0.0122,-0.0183,0.0005,0.0006,0.0006,0.0006,0,0.0268,0.0287,0.0339,0.0382,0.0402,0.0444,0.0501,0.054,0.0546,0.0595,0.0594,0.0546,0.0467,0.034,0.0217,0.0125,-0.005,-0.0022,0.0006,-0.0011,-0.0185,-0.0243,-0.0362,-0.0446,-0.0105,-0.0106,-0.0106,0,0.0288,0.0319,0.0385,0.0424,0.0449,0.051,0.0556,0.0582,0.0632,0.0655,0.0686,0.0617,0.0595,0.0396,0.0214,0.0038,-0.0076,-0.0064,-0.0076,-0.0193,-0.0274,-0.0308,-0.0374,-0.0072,-0.0073,-0.0073,-0.0073,0,0.0329,0.0352,0.0399,0.0481,0.0539,0.0609,0.0678,0.0729,0.0768,0.0808,0.0847,0.0826,0.0633,0.0463,0.021,0.0089,-0.0149,-0.0074,-0.02,-0.0262,-0.03,-0.0391,-0.0047,-0.0075,-0.0075,-0.0074,-0.0074,-0.0074,0.0361,0.0402,0.0465,0.0545,0.0615,0.0705,0.0773,0.0848,0.0936,0.1009,0.0978,0.098,0.0711,0.037,0.0169,-0.0172,-0.018,-0.0263,-0.0325,-0.035,-0.0429,-0.0092,-0.014,-0.014,-0.014,-0.014,-0.014,0,0.0404,0.0451,0.0524,0.062,0.0703,0.0734,0.0853,0.0929,0.1045,0.1113,0.1148,0.1019,0.0706,0.0362,-0.0096,-0.0357,-0.0468,-0.0508,-0.0557,-0.0617,-0.0318,-0.0314,-0.0394,-0.0394,-0.0394,-0.0394,-0.0394,-0.0394,0.0427,0.0503,0.0542,0.0681,0.075,0.0871,0.0946,0.1057,0.1142,0.122,0.1224,0.1189,0.0917,0.0148,-0.0424,-0.0576,-0.0791,-0.082,-0.0956,-0.0748,-0.073,-0.0713,-0.0726,-0.0891,-0.0891,-0.1221,-0.1225,-0.1227]}],[{"header":{"parameterUnit":"m.s-1","parameterCategory":2,"la1":30.2991,"la2":30.254,"lo1":-89.0895,"lo2":-89.0444,"dy":0.0017,"dx":0.0017,"nx":28,"ny":28,"refTime":"2024-02-05T03:00:00:Z","depth":"2","parameterNumber":2,"parameterNumberName":"U-component_of_CURRENTS"},"data":[0,0,0,0,0,0,0,0,0,0,0,0,0,0,0,0,0,0,0,0,0,0,0,0,0,0,0,0,0,0,0,0,0,0,0,0,0,0,0,0,0,0,0,0,0,0,0,0,0,0,0,0,0,0,0,0,0,0,0.1901,0.1901,0,0.1894,0.1894,0.1894,0.1857,0.1857,0.1856,0.1855,0.1821,0.1821,0.1821,0,0,0,0,0,0,0,0,0,0,0,0,0,0.1905,0.1904,0.1901,0.1901,0.1901,0.1894,0.1894,0.1894,0.1857,0.1857,0.1856,0.1855,0.1822,0.1821,0.1821,0,0,0,0,0,0,0,0,0,0,0,0,0,0.1898,0.1904,0.1901,0.1884,0.1883,0.1895,0.1894,0.1894,0.1857,0.1857,0.1856,0.1855,0.1822,0.1821,0.1821,0.1835,0,0,0.1819,0.1819,0,0,0,0,0,0,0,0,0.1899,0.1898,0.1887,0.1886,0.1884,0.1878,0.1883,0.1874,0.1858,0.1864,0.1855,0.1854,0.1841,0.1839,0.1835,0.1834,0.1832,0.1819,0.1819,0.1819,0.1818,0,0,0,0,0,0,0,0.1899,0.1898,0.1895,0.1887,0.1886,0.1886,0.1883,0.1881,0.1854,0.1863,0.1861,0.1866,0.1839,0.1836,0.1834,0.1832,0.1819,0.1819,0.1818,0.1818,0.1844,0.1845,0,0,0,0,0,0,0.1906,0.1898,0.1895,0.1895,0.1893,0.1887,0.1884,0.1879,0.1855,0.1852,0.1867,0.1864,0.1837,0.1835,0.1833,0.1852,0.1819,0.1818,0.1818,0.1843,0.1845,0.1846,0,0,0,0,0,0,0.1906,0.1905,0.1896,0.19,0.1899,0.1888,0.1882,0.1879,0.1875,0.1859,0.1854,0.1866,0.1836,0.1834,0.1835,0.185,0.1818,0.1817,0.1842,0.1844,0.1845,0.1889,0,0,0,0,0,0,0.1906,0.1905,0.1907,0.19,0.1899,0.1897,0.1883,0.188,0.1881,0.1877,0.1857,0.1853,0.1836,0.1836,0.1835,0.1849,0.1817,0.1841,0.1843,0.1845,0.1886,0.1892,0.1896,0,0,0,0,0,0.1906,0.1907,0.1906,0.1907,0.19,0.1897,0.1896,0.1884,0.1882,0.1878,0.1872,0.1853,0.1847,0.1837,0.1835,0.1849,0.184,0.1842,0.1845,0.1884,0.189,0.1896,0,0,0,0,0,0,0.1909,0.1904,0.1903,0.1902,0.19,0.1892,0.1894,0.189,0.1884,0.1884,0.1865,0.1861,0.1868,0.1857,0.1846,0.1864,0.1841,0.1843,0.1872,0.1878,0.1883,0.1892,0.1816,0,0,0,0,0,0.1913,0.1912,0.1909,0.191,0.191,0.1906,0.1906,0.19,0.1895,0.1891,0.1881,0.1876,0.1877,0.1875,0.187,0.1882,0.1882,0.1891,0.1896,0.19,0.1907,0.1934,0.1942,0.1853,0.1853,0.1853,0,0,0.1916,0.1915,0.1914,0.1911,0.191,0.1916,0.1902,0.1905,0.1912,0.189,0.1897,0.1892,0.1885,0.1894,0.1897,0.1886,0.1925,0.1903,0.1907,0.1912,0.1937,0.1946,0.1954,0.1855,0.1854,0.1854,0,0,0.1924,0.192,0.1923,0.1925,0.1929,0.1927,0.1931,0.1928,0.1925,0.1937,0.1925,0.1934,0.1931,0.1931,0.1931,0.1965,0.1951,0.1961,0.1995,0.2021,0.2028,0.2035,0.2042,0.2049,0.1965,0.1965,0.1965,0,0.1932,0.1931,0.1925,0.1933,0.1939,0.1935,0.1945,0.1946,0.1945,0.1957,0.1943,0.1966,0.1952,0.1978,0.1984,0.1977,0.1983,0.197,0.2028,0.2035,0.2041,0.2046,0.2053,0.1967,0.1967,0.1967,0.1967,0,0.1942,0.1946,0.195,0.1958,0.1964,0.197,0.1976,0.1986,0.199,0.1998,0.2024,0.2015,0.203,0.2028,0.2013,0.2053,0.204,0.2031,0.2012,0.2052,0.2055,0.2062,0.1971,0.197,0.1969,0.1969,0,0,0.1946,0.1954,0.1957,0.1964,0.1977,0.1981,0.2006,0.2026,0.205,0.2058,0.209,0.2097,0.2101,0.2102,0.209,0.2108,0.2147,0.2088,0.2089,0.2095,0.2196,0.2179,0.2184,0.215,0.2152,0.2153,0.2178,0,0.1956,0.197,0.1976,0.1995,0.2002,0.2016,0.2037,0.206,0.2081,0.211,0.2123,0.2145,0.2126,0.2135,0.2154,0.2148,0.2168,0.214,0.2156,0.2156,0.2136,0.2192,0.1979,0.1984,0.2185,0.2186,0.2186,0,0.1963,0.1971,0.1988,0.201,0.2016,0.2031,0.2072,0.2093,0.214,0.2161,0.2201,0.2205,0.2236,0.2209,0.2242,0.2227,0.2218,0.2212,0.2212,0.2187,0.2153,0.1977,0.1988,0.2197,0.2196,0.2196,0.2195,0,0.1958,0.198,0.1991,0.1999,0.2025,0.2043,0.2063,0.2111,0.214,0.2197,0.2228,0.2267,0.2288,0.2297,0.2288,0.2269,0.2318,0.2289,0.2267,0.2265,0.2082,0.2062,0.2318,0.2318,0.2318,0.2318,0.2318,0,0.1959,0.197,0.1989,0.1994,0.2019,0.2042,0.2082,0.2116,0.2173,0.2216,0.2251,0.2294,0.2313,0.2338,0.2319,0.2324,0.2349,0.2288,0.2281,0.2091,0.2072,0.2254,0.2246,0.2319,0.2319,0.2319,0.2318,0,0.1949,0.196,0.1976,0.2004,0.2014,0.2034,0.2087,0.2114,0.2177,0.2235,0.2254,0.2328,0.2367,0.2374,0.2392,0.2365,0.2363,0.2354,0.2126,0.2093,0.2279,0.2273,0.2333,0.2333,0.2333,0.2333,0.2333,0,0.1943,0.1948,0.1977,0.1983,0.1994,0.2027,0.2045,0.211,0.2144,0.2253,0.2273,0.2345,0.2387,0.2419,0.2362,0.2337,0.2379,0.214,0.2073,0.2299,0.2286,0.228,0.2275,0.1834,0.183,0.1827,0.1824,0,0.1931,0.1942,0.1952,0.1965,0.1978,0.2001,0.2035,0.2067,0.2145,0.2194,0.2272,0.2322,0.2353,0.2241,0.2221,0.2178,0.2128,0.2074,0.2367,0.1883,0.1836,0.1821,0.1831,0.1794,0.1797,0.1799,0.1801,0.1802,0.192,0.1921,0.193,0.1937,0.1949,0.1957,0.1959,0.199,0.2035,0.2058,0.2176,0.2149,0.2143,0.2008,0.1931,0.185,0.2005,0.1886,0.1892,0.1903,0.186,0.1819,0.1763,0.1766,0.1768,0.177,0.1772,0,0.1885,0.1891,0.1897,0.1892,0.1867,0.1904,0.1929,0.1883,0.1882,0.191,0.1932,0.1744,0.1677,0.1667,0.1493,0.1495,0.1441,0.1433,0.1324,0.1357,0.1385,0.1312,0.1071,0.1069,0.1067,0.1065,0,0,0.1867,0.1846,0.1841,0.1793,0.1795,0.1734,0.1734,0.1672,0.1648,0.1563,0.1509,0.1594,0.1635,0.1328,0.1281,0.1147,0.1244,0.1101,0.1665,0.157,0.1596,0.1651,0.1577,0,0,0,0,0]},{"header":{"parameterUnit":"m.s-1","parameterCategory":2,"la1":30.2991,"la2":30.254,"lo1":-89.0895,"lo2":-89.0444,"dy":0.0017,"dx":0.0017,"nx":28,"ny":28,"refTime":"2024-02-05T03:00:00:Z","depth":"2","parameterNumber":3,"parameterNumberName":"V-component_of_CURRENTS"},"data":[0,0,0,0,0,0,0,0,0,0,0,0,0,0,0,0,0,0,0,0,0,0,0,0,0,0,0,0,0,0,0,0,0,0,0,0,0,0,0,0,0,0,0,0,0,0,0,0,0,0,0,0,0,0,0,0,0,0,0.0127,0.0127,0,0.0112,0.0111,0.0111,0.0096,0.0096,0.0096,0.0096,0.0079,0.0079,0.0079,0,0,0,0,0,0,0,0,0,0,0,0,0,0.011,0.011,0.0127,0.0127,0.0127,0.0112,0.0111,0.0111,0.0096,0.0096,0.0096,0.0095,0.0079,0.0079,0.0079,0,0,0,0,0,0,0,0,0,0,0,0,0,0.0108,0.011,0.0127,0.0118,0.0117,0.0112,0.0111,0.0111,0.0096,0.0096,0.0096,0.0095,0.0079,0.0079,0.0078,0.0081,0,0,0.0077,0.0077,0,0,0,0,0,0,0,0,0.0108,0.0108,0.0119,0.0118,0.0117,0.0106,0.0099,0.0101,0.0096,0.0103,0.0096,0.0095,0.0089,0.0087,0.0084,0.008,0.0079,0.0077,0.0077,0.0077,0.0077,0,0,0,0,0,0,0,0.0108,0.0109,0.012,0.0119,0.0118,0.0103,0.0103,0.0099,0.0097,0.0103,0.0102,0.0101,0.0088,0.0085,0.0084,0.0079,0.0077,0.0077,0.0076,0.0076,0.0069,0.0069,0,0,0,0,0,0,0.0113,0.0109,0.0121,0.012,0.0112,0.0104,0.0103,0.0109,0.0097,0.0095,0.0101,0.01,0.0086,0.0084,0.0083,0.0091,0.0077,0.0076,0.0076,0.0069,0.0069,0.0069,0,0,0,0,0,0,0.0113,0.0115,0.0121,0.0114,0.0114,0.0104,0.0111,0.0109,0.0107,0.0096,0.0094,0.0101,0.0085,0.0084,0.0085,0.009,0.0076,0.0076,0.0069,0.0069,0.0069,0.0104,0,0,0,0,0,0,0.0113,0.0115,0.012,0.0115,0.0115,0.0123,0.0111,0.0109,0.0107,0.0105,0.0095,0.0093,0.0085,0.0086,0.0084,0.009,0.0075,0.0069,0.0069,0.0069,0.0103,0.0105,0.0107,0,0,0,0,0,0.0112,0.0124,0.0121,0.0122,0.0123,0.0124,0.0123,0.0114,0.0107,0.011,0.0103,0.0093,0.0085,0.0086,0.0084,0.0089,0.0069,0.0069,0.0069,0.0102,0.0105,0.0107,0,0,0,0,0,0,0.0118,0.0124,0.0119,0.0132,0.0129,0.0122,0.0123,0.0116,0.0113,0.011,0.0099,0.0097,0.0098,0.0088,0.0089,0.0086,0.0074,0.0073,0.0099,0.0101,0.0104,0.0115,0.0075,0,0,0,0,0,0.0122,0.0133,0.0131,0.014,0.014,0.0131,0.013,0.0124,0.012,0.0118,0.0112,0.0103,0.0097,0.0096,0.0089,0.0092,0.0076,0.0092,0.0094,0.0096,0.0104,0.0083,0.0085,0.007,0.007,0.007,0,0,0.0126,0.013,0.0135,0.0142,0.0138,0.0149,0.013,0.0131,0.0138,0.0117,0.0126,0.0112,0.01,0.0101,0.0101,0.0095,0.009,0.0096,0.0098,0.0105,0.0084,0.0085,0.0087,0.007,0.007,0.007,0,0,0.0142,0.0143,0.0158,0.016,0.016,0.0158,0.0161,0.0156,0.0151,0.0155,0.0141,0.0133,0.0127,0.012,0.0115,0.0126,0.0103,0.0119,0.0143,0.0124,0.0125,0.0126,0.0103,0.0101,0.0121,0.0121,0.0121,0,0.0144,0.0167,0.0161,0.0176,0.0183,0.0167,0.0184,0.0179,0.0175,0.0177,0.0162,0.0151,0.0137,0.0141,0.0142,0.0133,0.0116,0.0135,0.0127,0.0128,0.0128,0.0104,0.0102,0.0123,0.0123,0.0123,0.0123,0,0.0174,0.019,0.0199,0.0217,0.0222,0.0234,0.0229,0.0231,0.0221,0.0218,0.0214,0.019,0.0185,0.0174,0.0162,0.016,0.0144,0.0133,0.0123,0.0132,0.0106,0.0103,0.0126,0.0125,0.0124,0.0124,0,0,0.0188,0.0215,0.022,0.0238,0.0246,0.0258,0.0267,0.0278,0.0293,0.027,0.0282,0.0258,0.024,0.0233,0.021,0.019,0.0171,0.0165,0.0163,0.0147,0.0124,0.0108,0.0103,0.0157,0.0157,0.0157,0.0104,0,0.0215,0.0257,0.0261,0.0301,0.0324,0.0315,0.0332,0.0335,0.0332,0.0338,0.03,0.0303,0.0264,0.026,0.0234,0.0192,0.0167,0.0187,0.0114,0.0112,0.01,0.01,0.014,0.0095,0.0101,0.01,0.01,0,0.0248,0.0274,0.0319,0.0354,0.0363,0.0384,0.0412,0.0424,0.0422,0.0416,0.0401,0.0372,0.0342,0.0303,0.0231,0.0245,0.019,0.0148,0.0145,0.0118,0.0091,0.0087,0.009,0.0095,0.0096,0.0096,0.0096,0,0.0275,0.0316,0.0358,0.037,0.0404,0.0422,0.0439,0.0452,0.0475,0.0468,0.0477,0.0431,0.0413,0.0337,0.0245,0.0238,0.0159,0.0139,0.0069,0.0067,0.0081,0.0081,0.0085,0.0085,0.0085,0.0085,0.0085,0,0.0311,0.0343,0.0377,0.0402,0.0457,0.0461,0.0516,0.0523,0.0541,0.0583,0.0523,0.0535,0.0421,0.0359,0.0265,0.0161,0.0172,0.0075,0.0054,0.0093,0.0094,0.0081,0.0081,0.0083,0.0083,0.0084,0.0084,0,0.034,0.0359,0.0411,0.0455,0.0474,0.0515,0.0572,0.0611,0.0616,0.0664,0.0662,0.0615,0.0535,0.0409,0.0288,0.0198,0.0093,0.0051,0.0101,0.0087,0.0007,0.001,-0.003,-0.0031,-0.0032,-0.0033,-0.0034,0,0.0359,0.039,0.0456,0.0494,0.0519,0.0578,0.0624,0.0651,0.07,0.0722,0.0751,0.0681,0.0657,0.046,0.0287,0.0115,0.0084,0.003,0.0023,0.0013,-0.0004,0.0,0.0004,0.0052,0.0052,0.0052,0.0052,0,0.0399,0.0422,0.0468,0.0548,0.0606,0.0676,0.0743,0.0794,0.0833,0.087,0.0905,0.0882,0.0696,0.0537,0.0289,0.0178,0.0058,0.0026,0.0009,0.0074,0.0086,0.0071,0.0073,0.0053,0.0053,0.0053,0.0053,0.0053,0.043,0.047,0.0532,0.061,0.0679,0.0769,0.0837,0.0909,0.0995,0.1057,0.1025,0.0992,0.0796,0.049,0.0284,0.0061,0.0068,-0.0004,-0.0002,-0.0001,0.0018,0.0028,-0.0013,-0.0014,-0.0014,-0.0014,-0.0015,0,0.0474,0.0517,0.059,0.0684,0.0768,0.0797,0.0915,0.0991,0.1102,0.1134,0.116,0.0981,0.0786,0.0542,0.0225,0.0037,0.0031,-0.003,0.0011,0.0012,0.0013,0.0033,0.0005,0.0004,0.0004,0.0003,0,0,0.0497,0.0573,0.0611,0.0749,0.0814,0.094,0.1014,0.1124,0.1183,0.1233,0.1202,0.1133,0.085,0.062,0.0368,0.0185,0.0141,0.0149,0.0159,0.0241,0.0243,0.0059,0.0095,0,0,0,0,0]}],[{"header":{"parameterUnit":"m.s-1","parameterCategory":2,"la1":30.2991,"la2":30.254,"lo1":-89.0895,"lo2":-89.0444,"dy":0.0017,"dx":0.0017,"nx":28,"ny":28,"refTime":"2024-02-05T03:00:00:Z","depth":"4","parameterNumber":2,"parameterNumberName":"U-component_of_CURRENTS"},"data":[0,0,0,0,0,0,0,0,0,0,0,0,0,0,0,0,0,0,0,0,0,0,0,0,0,0,0,0,0,0,0,0,0,0,0,0,0,0,0,0,0,0,0,0,0,0,0,0,0,0,0,0,0,0,0,0,0,0,0.1149,0.1149,0,0.118,0.1181,0.1181,0.12,0.12,0.12,0.1201,0.1235,0.1236,0.1237,0,0,0,0,0,0,0,0,0,0,0,0,0,0.1115,0.1115,0.1149,0.1149,0.115,0.118,0.1181,0.1181,0.12,0.12,0.12,0.1201,0.1235,0.1236,0.1237,0,0,0,0,0,0,0,0,0,0,0,0,0,0.1134,0.1115,0.1149,0.1165,0.1166,0.118,0.1181,0.1181,0.12,0.12,0.12,0.1201,0.1235,0.1236,0.1237,0.1234,0,0,0.124,0.124,0,0,0,0,0,0,0,0,0.1133,0.1135,0.1162,0.1164,0.1166,0.1188,0.1181,0.12,0.12,0.1185,0.1201,0.1201,0.1221,0.1223,0.1225,0.1236,0.1238,0.124,0.1241,0.1241,0.1241,0,0,0,0,0,0,0,0.1132,0.1134,0.1159,0.1162,0.1165,0.1174,0.1177,0.1185,0.1199,0.1186,0.1188,0.1195,0.1222,0.1224,0.1226,0.1238,0.124,0.1241,0.1241,0.1242,0.1314,0.1315,0,0,0,0,0,0,0.1131,0.1132,0.1158,0.116,0.1152,0.1174,0.1177,0.1179,0.1199,0.1202,0.1194,0.1196,0.1222,0.1225,0.1227,0.1287,0.1241,0.1242,0.1242,0.1312,0.1314,0.1315,0,0,0,0,0,0,0.113,0.1133,0.1157,0.1149,0.1153,0.1174,0.1176,0.1179,0.1205,0.1205,0.1209,0.122,0.1223,0.1226,0.1258,0.1286,0.1242,0.1243,0.1311,0.1313,0.1315,0.1367,0,0,0,0,0,0,0.1129,0.1132,0.1147,0.1149,0.1154,0.1175,0.1176,0.118,0.1208,0.121,0.1227,0.123,0.1223,0.1256,0.1259,0.1287,0.1244,0.1309,0.1312,0.1314,0.1363,0.137,0.1376,0,0,0,0,0,0.1127,0.1137,0.1147,0.1151,0.1168,0.1175,0.1179,0.1194,0.1209,0.1219,0.1239,0.123,0.1273,0.1258,0.126,0.129,0.1308,0.1311,0.1314,0.1361,0.1369,0.1376,0,0,0,0,0,0,0.1131,0.1141,0.1151,0.1165,0.1177,0.118,0.1198,0.1209,0.1232,0.1246,0.1246,0.1249,0.1287,0.1282,0.1265,0.1318,0.129,0.1294,0.1325,0.1333,0.1339,0.1343,0.1245,0,0,0,0,0,0.1139,0.1152,0.1159,0.1175,0.1183,0.1197,0.121,0.122,0.1235,0.1247,0.1262,0.1281,0.1297,0.1311,0.132,0.135,0.1347,0.1371,0.1378,0.1383,0.1389,0.1415,0.1424,0.1325,0.1325,0.1325,0,0,0.1146,0.1155,0.1164,0.1178,0.1191,0.1207,0.1206,0.123,0.1252,0.1247,0.1292,0.1304,0.1309,0.1342,0.1359,0.1345,0.1409,0.1387,0.1391,0.1394,0.1419,0.1429,0.1437,0.1327,0.1327,0.1326,0,0,0.1159,0.1175,0.1189,0.1201,0.1226,0.1232,0.1245,0.1265,0.1284,0.1322,0.1327,0.1359,0.1386,0.1395,0.1402,0.1451,0.1441,0.1458,0.1498,0.1523,0.1532,0.1539,0.1543,0.1551,0.1464,0.1464,0.1464,0,0.1173,0.1185,0.1195,0.1211,0.1229,0.1247,0.1266,0.1286,0.1317,0.1342,0.1346,0.1406,0.141,0.145,0.1467,0.1466,0.1473,0.1467,0.1532,0.1539,0.1545,0.1548,0.1555,0.1467,0.1467,0.1466,0.1466,0,0.1184,0.1208,0.1218,0.1245,0.1264,0.1284,0.1308,0.1342,0.1375,0.1397,0.1455,0.1467,0.1504,0.1511,0.1505,0.1558,0.1545,0.1534,0.1511,0.1558,0.1558,0.1565,0.1471,0.147,0.1469,0.1468,0,0,0.1179,0.1219,0.1227,0.1247,0.1285,0.1298,0.1346,0.1386,0.1427,0.147,0.152,0.1557,0.1578,0.1587,0.1589,0.1612,0.166,0.16,0.16,0.1602,0.171,0.1594,0.159,0.1667,0.1668,0.167,0.169,0,0.1188,0.122,0.1242,0.1284,0.13,0.1339,0.1378,0.1425,0.147,0.1524,0.1558,0.1606,0.1602,0.1629,0.1655,0.166,0.1681,0.1655,0.1666,0.1666,0.1555,0.1595,0.1675,0.1695,0.1696,0.1697,0.1698,0,0.1187,0.121,0.1249,0.1302,0.1315,0.1352,0.1424,0.1462,0.1539,0.1578,0.164,0.1665,0.1717,0.17,0.1747,0.1734,0.1732,0.1728,0.1729,0.1607,0.1562,0.1639,0.171,0.1709,0.1708,0.1707,0.1706,0,0.116,0.1214,0.1247,0.1265,0.1328,0.137,0.1413,0.149,0.1534,0.1622,0.1666,0.1727,0.1766,0.1785,0.1789,0.1779,0.1823,0.1802,0.1694,0.1685,0.176,0.1752,0.1833,0.1833,0.1833,0.1833,0.1833,0,0.1141,0.1173,0.1246,0.1262,0.1316,0.1369,0.144,0.1494,0.1579,0.1629,0.1698,0.1738,0.1794,0.1822,0.1813,0.1773,0.1848,0.1704,0.1686,0.178,0.1775,0.1764,0.1756,0.1834,0.1834,0.1834,0.1834,0,0.1101,0.1148,0.1193,0.1274,0.1305,0.1348,0.145,0.1492,0.1585,0.1653,0.1685,0.177,0.1801,0.1829,0.1853,0.1791,0.1768,0.1734,0.1832,0.1819,0.1604,0.1598,0.1608,0.1604,0.16,0.1598,0.1595,0,0.1078,0.1098,0.1194,0.1225,0.1269,0.1344,0.1386,0.1487,0.1529,0.1652,0.1667,0.1743,0.1781,0.1719,0.1762,0.1733,0.1709,0.168,0.1639,0.1601,0.1584,0.1583,0.1582,0.159,0.1589,0.1589,0.1588,0,0.1033,0.1084,0.1121,0.1185,0.124,0.129,0.1362,0.1386,0.1491,0.1589,0.1605,0.1612,0.1641,0.1644,0.1636,0.1614,0.1688,0.1646,0.1652,0.1613,0.158,0.1566,0.1569,0.1576,0.1578,0.1579,0.158,0,0.1008,0.1024,0.1081,0.1128,0.119,0.121,0.1261,0.1299,0.135,0.1477,0.1481,0.1551,0.163,0.1583,0.1578,0.1546,0.1513,0.1445,0.1461,0.1474,0.1419,0.1358,0.1274,0,0,0,0,0,0.097,0.0974,0.1014,0.105,0.1107,0.114,0.1225,0.1277,0.138,0.135,0.141,0.1425,0.1417,0.1457,0.1393,0.1517,0.1522,0.1435,0.1454,0.1514,0.1527,0.1473,0,0,0,0,0,0,0.0941,0.0975,0.0983,0.0973,0.0982,0.1026,0.1076,0.1148,0.1139,0.1248,0.1252,0.1326,0.1342,0.143,0.1361,0.137,0.1348,0.1482,0.1477,0.1506,0.1518,0.1529,0.1478,0,0,0,0,0]},{"header":{"parameterUnit":"m.s-1","parameterCategory":2,"la1":30.2991,"la2":30.254,"lo1":-89.0895,"lo2":-89.0444,"dy":0.0017,"dx":0.0017,"nx":28,"ny":28,"refTime":"2024-02-05T03:00:00:Z","depth":"4","parameterNumber":3,"parameterNumberName":"V-component_of_CURRENTS"},"data":[0,0,0,0,0,0,0,0,0,0,0,0,0,0,0,0,0,0,0,0,0,0,0,0,0,0,0,0,0,0,0,0,0,0,0,0,0,0,0,0,0,0,0,0,0,0,0,0,0,0,0,0,0,0,0,0,0,0,0.0255,0.0255,0,0.0249,0.0249,0.0249,0.0245,0.0244,0.0244,0.0244,0.0241,0.0241,0.0241,0,0,0,0,0,0,0,0,0,0,0,0,0,0.0237,0.0238,0.0255,0.0255,0.0255,0.0249,0.0249,0.0249,0.0245,0.0244,0.0244,0.0244,0.0241,0.0241,0.0241,0,0,0,0,0,0,0,0,0,0,0,0,0,0.024,0.0238,0.0255,0.0252,0.0252,0.0249,0.0249,0.0249,0.0245,0.0244,0.0244,0.0244,0.0241,0.0241,0.0241,0.0241,0,0,0.0241,0.0241,0,0,0,0,0,0,0,0,0.0239,0.024,0.0253,0.0252,0.0252,0.0248,0.0242,0.0247,0.0245,0.0247,0.0244,0.0244,0.0244,0.0243,0.0242,0.0241,0.0241,0.0241,0.0241,0.0241,0.0241,0,0,0,0,0,0,0,0.0239,0.024,0.0253,0.0252,0.0252,0.0242,0.0243,0.0242,0.0246,0.0247,0.0247,0.0246,0.0243,0.0242,0.0242,0.0241,0.0241,0.0241,0.0241,0.0241,0.0239,0.0239,0,0,0,0,0,0,0.0242,0.024,0.0253,0.0252,0.0245,0.0243,0.0243,0.0249,0.0246,0.0245,0.0246,0.0246,0.0242,0.0242,0.0242,0.0252,0.0241,0.0241,0.0241,0.0239,0.0239,0.0239,0,0,0,0,0,0,0.0242,0.0243,0.0253,0.0246,0.0246,0.0243,0.0249,0.0249,0.0251,0.0245,0.0245,0.0249,0.0242,0.0242,0.0246,0.0252,0.0241,0.024,0.0239,0.0239,0.0239,0.0267,0,0,0,0,0,0,0.0241,0.0243,0.0249,0.0246,0.0247,0.0256,0.025,0.0249,0.025,0.025,0.0247,0.0247,0.0242,0.0247,0.0246,0.0251,0.024,0.0239,0.0239,0.0239,0.0266,0.0268,0.0269,0,0,0,0,0,0.0241,0.0251,0.025,0.0251,0.0255,0.0257,0.0256,0.0253,0.025,0.0254,0.0252,0.0247,0.0246,0.0247,0.0246,0.0252,0.0239,0.0239,0.0239,0.0265,0.0267,0.0269,0,0,0,0,0,0,0.0246,0.0251,0.025,0.0262,0.0261,0.0256,0.0259,0.0256,0.0257,0.0257,0.0251,0.0251,0.0255,0.0248,0.0249,0.0249,0.024,0.024,0.026,0.0262,0.0264,0.0272,0.024,0,0,0,0,0,0.025,0.026,0.026,0.0268,0.0269,0.0264,0.0265,0.0262,0.0262,0.0262,0.0261,0.0256,0.0254,0.0255,0.0251,0.0255,0.024,0.0256,0.0258,0.0259,0.0265,0.0245,0.0245,0.0239,0.0239,0.0239,0,0,0.0254,0.0258,0.0264,0.027,0.0269,0.0278,0.0265,0.0268,0.0275,0.0262,0.0273,0.0264,0.0256,0.0259,0.026,0.0256,0.0251,0.0259,0.0261,0.0266,0.0245,0.0245,0.0246,0.0239,0.0239,0.0239,0,0,0.0268,0.0271,0.0285,0.0287,0.0289,0.0288,0.029,0.0289,0.0288,0.0294,0.0285,0.0281,0.0279,0.0275,0.0271,0.028,0.0261,0.0276,0.0295,0.0275,0.0275,0.0276,0.0252,0.025,0.0278,0.0278,0.0278,0,0.0272,0.0291,0.0287,0.03,0.0307,0.0295,0.031,0.0308,0.0308,0.0312,0.0301,0.0295,0.0286,0.029,0.0292,0.0285,0.0269,0.0289,0.0278,0.0278,0.0278,0.0253,0.0251,0.0279,0.0279,0.0279,0.0279,0,0.0296,0.0311,0.0318,0.0335,0.034,0.035,0.0347,0.0351,0.0346,0.0345,0.0344,0.0326,0.0324,0.0316,0.0308,0.0304,0.0291,0.0282,0.0274,0.028,0.0254,0.0251,0.0281,0.028,0.028,0.028,0,0,0.0309,0.0332,0.0336,0.0352,0.0361,0.037,0.0379,0.0389,0.0402,0.0387,0.0397,0.0381,0.0368,0.0362,0.0345,0.0326,0.0306,0.0307,0.0305,0.0287,0.0259,0.0245,0.024,0.0295,0.0294,0.0294,0.0239,0,0.033,0.0365,0.037,0.0404,0.0423,0.0418,0.0432,0.0437,0.0435,0.044,0.0411,0.0414,0.0386,0.0384,0.036,0.0323,0.03,0.0322,0.0253,0.0251,0.0241,0.0237,0.0293,0.0237,0.0236,0.0236,0.0235,0,0.0356,0.0378,0.0417,0.0447,0.0455,0.0474,0.0498,0.0509,0.0507,0.0502,0.0491,0.0468,0.0442,0.0413,0.0348,0.0363,0.0315,0.0279,0.0275,0.0253,0.0231,0.023,0.0229,0.023,0.023,0.023,0.0231,0,0.0376,0.0413,0.0448,0.0459,0.0489,0.0506,0.0523,0.0533,0.0551,0.0545,0.055,0.0512,0.0495,0.043,0.0352,0.035,0.0272,0.026,0.02,0.0198,0.0215,0.0215,0.021,0.021,0.021,0.021,0.021,0,0.0401,0.043,0.0465,0.0485,0.0532,0.0539,0.0586,0.0591,0.0604,0.063,0.0589,0.0588,0.0498,0.0441,0.0363,0.0272,0.0278,0.0203,0.0184,0.0226,0.0229,0.0212,0.0213,0.0208,0.0208,0.0209,0.0209,0,0.0419,0.044,0.0485,0.0526,0.0545,0.0581,0.0632,0.066,0.0667,0.0694,0.0693,0.0646,0.057,0.0471,0.0363,0.0294,0.0204,0.0168,0.022,0.0204,0.0139,0.0142,0.0098,0.0097,0.0096,0.0095,0.0095,0,0.0431,0.0457,0.0519,0.0552,0.0576,0.063,0.0667,0.0693,0.0723,0.073,0.0741,0.0678,0.0631,0.0467,0.0361,0.0207,0.0183,0.0133,0.0135,0.0142,0.0128,0.0132,0.0136,0.0094,0.0094,0.0093,0.0093,0,0.0454,0.0479,0.0517,0.0586,0.0636,0.0694,0.0747,0.0772,0.0797,0.08,0.0776,0.0689,0.06,0.0469,0.0346,0.0237,0.0164,0.0124,0.0125,0.0127,0.0136,0.0124,0.0129,0.009,0.0091,0.0091,0.0091,0,0.0473,0.0504,0.0556,0.0617,0.0682,0.074,0.0767,0.0796,0.0822,0.082,0.081,0.0709,0.0652,0.0484,0.0375,0.0261,0.0231,0.0191,0.0188,0.0189,0.0229,0.0256,0.0231,0,0,0,0,0,0.049,0.0525,0.0581,0.0649,0.0712,0.0755,0.0813,0.0831,0.0852,0.0836,0.0823,0.0736,0.0569,0.0502,0.0385,0.0358,0.0212,0.0217,0.0165,0.0076,0.0079,0.0108,0,0,0,0,0,0,0.0501,0.0556,0.0582,0.0666,0.0716,0.0792,0.0833,0.0846,0.0836,0.0832,0.0746,0.0702,0.0542,0.0635,0.0381,0.0349,0.0297,0.0141,0.0138,0.0074,0.0077,0.0079,0.0111,0,0,0,0,0]}]]